Погода Чимбай

Погода Чимбай : погода сейчас, прогноз погоды и архив. Всё, что Вы хотите узнать о погоде Чимбай!

Хотите узнать прогноз погоды Чимбай? Тогда Вам сюда: Погода Чимбай

Поиск расширенной информации на нашем сайте:

Другие новости

Новости СМИ2

Главная страница сайта

Новости сайта

03.07.2017

Напоминаем, что на нашем специализированном сайте Метеоцентр.Азия вы можете получить высокодетализированные автоматические прогнозы погоды по пунктам России, СНГ и мира в авиационном формате (включающие направление и скорость ветра, видимость, явления погоды, количество и форму облачности, нижнюю и верхнюю границу облачности).


Погода Чимбай - сегодня

Время (UTC), дата Ветер
(°,м/с) 
Видим.   Явления Облачность Т
(°С)
Тd
(°С)
f(%) Тe
(°С)
Pmin
(гПа)
dP
(гПа)
Po
(мм)
O2
(г/м3)
Тmin Tmax R s Состояние
почвы
12 11.12.17 040 (СВ) 20000 м    9/6 1000 м средняя 
[Sc|Ac trans]
-5 -8.6 76 -6  1030.3  -0.4  766  315           
15 11.12.17 030 (СВ) н/о    10/10 1000 м 
[Sc]
-6 -9.1 79 -9  1031.4  1.1  767  317    -4.4       
18 11.12.17 030 (СВ) н/о    10/10 1000 м 
[Sc]
-5.7 -8.3 82 -10  1032  0.6  768  317    -4.4       
21 11.12.17 040 (СВ) н/о    10/10 1000 м 
[Sc]
-6.4 -8.7 84 -10  1032  768  318           
00 12.12.17 030 (СВ) н/о    10/10 1000 м 
[Sc]
-6.6 -8.6 86 -9  1032.3  0.3  768  318           
03 12.12.17 030 (СВ) 20000 м    10/10 1000 м 
[Sc]
-7 -9.1 85 -10  1033.1  0.8  768  319           
06 12.12.17 030 (СВ) 20000 м    10/10 1000 м 
[Sc]
-6.8 -9.2 83 -9  1035  1.8  770  319  -7.4         
09 12.12.17 040 (СВ) 20000 м    10/10 1000 м 
[Sc]
-5.5 -8.9 77 -7  1033.9  -1  769  317           
12 12.12.17 100 (В) 20000 м    10/10 1000 м 
[Sc]
-6 -9.1 79 -6  1034.7  0.7  770  318           
15 12.12.17 060 (СВ) н/о    10/10 1000 м 
[Sc]
-7.1 -10 80 -7  1035.5  0.8  770  320    -5.3       
18 12.12.17 060 (СВ) н/о  снежные зёрна  10/10 300 м 
[St]
-7.8 -10.5 81 -8  1035.4  -0.1  770  320    -5.3       
21 12.12.17 040 (СВ) н/о  {снег}  10/10 1000 м 
[Sc]
-8.2 -10.5 83 -10  1034.9  -0.5  770  321           
00 13.12.17 060 (СВ) н/о    10/10 1000 м 
[Sc]
-8.4 -10.3 86 -8  1034.3  -0.6  769  321           
03 13.12.17 050 (СВ) 4000 м  слаб. снег  10/10 600 м 
[Sc]
-9.6 -11.7 85 -11  1035.5  770  323      0.2   
06 13.12.17 050 (СВ) 20000 м  {снег}  8/8 600 м кучево-дожд. 
[Cb cap]
-8.8 -13.7 68 -12  1035.2  -0.3  770  322  -10    0.2     
09 13.12.17 060 (СВ) 20000 м    5/0 верхняя 
[Ci sp]
-7.7 -12.7 67 -10  1033.9  -1  769  320           
12 13.12.17 030 (СВ) 20000 м    8/0 средняя, верхняя 
[Ac trans|Ci sp]
-9 -12.4 76 -11  1033.4  -0.7  769  321           
15 13.12.17 030 (СВ) н/о    4/0 средняя 
[Ac trans]
-11.5 -14.4 79 -15  1035.2  1.5  770  325    -7.3  0.0     
18 13.12.17 030 (СВ) н/о    10/10 1000 м 
[Sc]
-12.5 -15.1 81 -12  1035.2  770  326    -7.3  0.0     
21 13.12.17 020 (С) н/о    10/10 1000 м 
[Sc]
-10.5 -13.2 81 -10  1035.1  -0.1  770  324           
00 14.12.17 050 (СВ) н/о    10/10 1000 м 
[Sc]
-9.7 -12.8 78 -10  1035.1  770  323           
03 14.12.17 030 (СВ) 20000 м    10/10 1000 м 
[Sc]
-9.9 -13.5 75 -12  1035.2  0.1  770  323           
06 14.12.17 040 (СВ) 20000 м  {снег}  8/8 1000 м 
[Cu med, cong]
-9.8 -12.4 81 -12  1035.3  0.1  770  323  -13         
09 14.12.17 030 (СВ) 20000 м    4/4 1000 м 
[Cu hum]
-7.1 -11.9 69 -9  1033.9  -1.1  769  319           
12 14.12.17 030 (СВ) 20000 м    ясно 
-8 -11.6 75 -11  1033.7  -0.2  769  320           
Время (UTC), дата Ветер
(°,м/с) 
Видим.   Явления Облачность Т
(°С)
Тd
(°С)
f(%) Тe
(°С)
Pmin
(гПа)
dP
(гПа)
Po
(мм)
O2
(г/м3)
Тmin Tmax R s Состояние
почвы

Для получения пояснительной информации подведите курсор к названию столбца.

ПОГОДА Чимбай - архив

Всё, что Вы хотите узнать о погоде Чимбай - удобно и подробно!

Выберите нужную дату (начиная с 1 января 2015* года) и нажмите кнопку "Найти".
Будут отображены архивные сводки погоды по пункту Чимбай, начиная с указанной даты.


Отображать данные в формате CSV (для использования в таблицах Excel)


Внимание! Наш архив погоды предназначен исключительно для личного некоммерческого использования в познавательных целях. Если Вам необходимы официальные справки о состоянии погоды (для производственных, юридических, коммерческих и т.п. целей), обращайтесь в органы Росгидромета.

*Примечание: данная дата относится к архиву по метеостанциям СССР (Россия, СНГ, Балтия).
Архив по метеостанциям Зарубежной Европы и Азии (кроме Китая) хранится 10 дней, по другим регионам земного шара (Китай, Африка, Америка, Австралия, Океания) - 1 день.

Чимбай - район местоположения метеостанции


Название, широта, долгота, высота метеостанции:
Чимбай 42.9°ш. 59.8°д. 66 м над ур. моря [Узбекистан]

Дополнительная информация

В oтличие oт бoльшинства пoгoдных сайтoв мы публикуем пoдрoбную метеoинфoрмацию в детальнoм прoфессиoнальнoм фoрмате.

Характеристики температуры и влажнoсти вoздуха измеряются на высoте 2 м в тени вдали oт зданий и деревьев.
Скoрoсть ветра измеряется на высoте 10 м (на урoвне рoста челoвека скoрoсть ветра ниже в 1.5-2 раза). Если метеoстанция нахoдится в гoрoде или в лесу, тo скoрoсть ветра занижена на 2-4 м/с пo сравнению с oткрытым местoм. Скoрoсть ветра над акватoриями крупных рек и oзёр, а также на вершинах хoлмoв на 2-5 м/с выше, чем в oбычных услoвиях.
Атмoсфернoе давление в разных тoчках местнoсти мoжет значительнo oтличаться oт давления на метеoстанции, в зависимoсти oт услoвий рельефа (при пoдъёме на 10 м давление пoнижается примернo на 1 мм рт.ст.).